Location: *
(50.0228°S, 177.2688°W)
Time: 01:31:40
(UTC+00:00)

Daily predictions for brighter satellites

Satellite Brightness Start Highest point End
(mag) Time Altitude Azimuth Time Altitude Azimuth Time Altitude Azimuth
In-Cosmos 22 4.4 05:48:44 10° NNE 05:53:43 43° E 05:58:48 10° SSE
NOAA 6 4.2 05:48:59 10° SSE 05:54:19 89° ENE 05:59:33 10° NNW
Cosmos 1844 4.0 05:49:04 10° N 05:54:40 49° ENE 06:00:16 10° SE
STARLINK-1017 3.7 05:50:28 10° WSW 05:54:43 81° SSE 05:58:57 10° ENE
STARLINK-72 3.6 05:50:56 10° WSW 05:55:04 83° SSE 05:59:10 10° ENE
Lacrosse 5 rocket 1.7 05:51:23 10° SW 05:55:38 52° SSE 05:59:36 10° E
STARLINK-50 3.6 05:52:34 10° WSW 05:56:43 84° SSE 06:00:49 10° ENE
STARLINK-1011 4.0 05:52:38 10° WSW 05:56:49 56° S 06:00:59 10° E
STARLINK-1050 3.9 05:53:56 10° W 05:58:09 66° SSW 06:02:23 10° ESE
STARLINK-59 3.6 05:54:20 10° WSW 05:58:28 87° SSE 06:02:35 10° ENE
Cosmos 2315 Rocket 4.3 05:52:16 10° SSW 05:58:34 77° W 06:04:51 10° N
Cosmos 1025 Rocket 3.2 05:55:32 10° NNW 05:59:52 80° W 06:04:17 10° S
STARLINK-56 3.6 05:55:53 10° WSW 06:00:01 86° SSE 06:04:07 10° ENE
STARLINK-73 3.6 05:57:32 10° WSW 06:01:41 88° SSE 06:05:47 10° ENE
STARLINK-1036 4.0 05:57:36 10° WSW 06:01:47 57° S 06:05:58 10° E
STARLINK-64 4.2 05:58:15 10° WSW 06:01:50 48° NNW 06:05:22 10° NE
Gbstr 26 Del rocket 4.2 05:55:52 10° NW 06:01:58 72° NNE 06:09:26 10° ESE
Cosmos 1758 4.4 05:58:13 10° SSW 06:02:15 53° W 06:06:16 10° N
STARLINK-1055 3.9 05:58:56 10° W 06:03:09 65° SSW 06:07:22 10° ESE
STARLINK-38 3.6 05:59:13 10° WSW 06:03:20 89° SSE 06:07:27 10° ENE
Cosmos 1140 Rocket 3.8 05:58:26 10° SSW 06:03:46 76° WNW 06:09:03 10° NNE
Meteor 2-10 4.0 05:59:38 10° S 06:04:48 84° ESE 06:09:58 10° NNE
STARLINK-65 3.6 06:00:52 10° WSW 06:05:00 90° NNW 06:09:07 10° ENE
Okean O Rocket 1.8 06:01:23 10° SSE 06:05:54 81° WSW 06:10:19 10° NNW
STARLINK-1014 3.6 06:02:32 10° WSW 06:06:37 88° SSE 06:10:39 10° ENE
STARLINK-53 3.6 06:02:35 10° WSW 06:06:44 87° NNW 06:10:50 10° ENE
STARLINK-1044 4.0 06:02:37 10° WSW 06:06:48 57° S 06:10:47 11° E
Shenzhou-11 Module 4.2 06:06:29 10° N 06:07:29 12° NNE 06:08:29 10° NE
AQUARIUS 4.3 06:03:29 10° SSE 06:08:01 56° E 06:12:29 10° N
STARLINK-1022 4.0 06:03:58 10° W 06:08:10 63° S 06:12:19 10° ESE
IRS-1C Rocket 4.4 06:04:27 10° SSE 06:09:36 44° E 06:14:40 10° N
STARLINK-1048 3.7 06:05:25 10° WSW 06:09:40 89° NNW 06:13:53 10° ENE
Cosmos 2056 Rocket 3.5 06:06:31 10° NNW 06:11:45 77° ENE 06:17:07 10° SSE
STARLINK-1047 4.0 06:07:35 10° WSW 06:11:47 58° S 06:15:33 12° E
Cosmos 1340 Rocket 3.4 06:08:10 10° S 06:12:03 38° ESE 06:15:55 10° NE
STARLINK-1037 4.0 06:08:23 10° WSW 06:12:35 58° S 06:16:19 13° E
Cosmos 1300 4.3 06:10:00 10° SSE 06:12:36 17° ESE 06:14:43 12° ENE
STARLINK-1042 4.0 06:08:57 10° W 06:13:09 62° S 06:17:06 11° ESE
STARLINK-1049 3.7 06:10:24 10° WSW 06:14:39 85° NNW 06:18:43 11° ENE
Cosmos 44 3.7 06:10:06 10° SW 06:15:19 53° SE 06:20:17 10° ENE
STARLINK-24 3.7 06:13:27 10° WSW 06:17:34 78° NNW 06:21:29 11° ENE
Cosmos 1536 Rocket 4.3 06:13:17 10° NNW 06:17:37 58° WSW 06:22:01 10° S
STARLINK-1010 3.9 06:13:22 10° WSW 06:17:41 75° NNW 06:21:54 10° ENE
STARLINK-1056 4.0 06:13:55 10° W 06:18:06 60° S 06:21:51 13° ESE
YAOGAN 1 4.0 06:15:08 10° SE 06:18:07 18° E 06:21:05 10° NE
STARLINK-1051 3.7 06:15:24 10° WSW 06:19:39 82° NNW 06:23:32 12° ENE
Meteor 2-21 4.5 06:15:13 10° N 06:21:23 68° E 06:27:39 10° SSE
STARLINK-1059 3.9 06:17:35 10° WSW 06:21:47 60° S 06:25:07 15° E
STARLINK-1054 4.0 06:18:55 10° W 06:23:06 59° S 06:26:38 14° ESE
Okean 1-7 Rocket 4.3 06:20:18 10° NNE 06:24:21 32° E 06:28:27 10° SSE
CZ-4 R/B 2.5 06:21:06 10° SE 06:24:29 23° E 06:27:46 10° NNE
SMAP 3.1 06:19:57 10° SSE 06:24:43 86° ENE 06:29:26 10° NNW
Cosmos 1607 4.0 06:19:57 10° SW 06:26:13 64° SE 06:32:21 10° NE
Cosmos 1844 Rocket 2.8 06:20:48 10° NNW 06:26:26 84° WSW 06:32:06 10° SSE
STARLINK-1057 3.9 06:22:35 10° WSW 06:26:48 61° S 06:29:55 17° E
Cosmos 1939 Rocket 4.1 06:24:06 10° SE 06:27:24 22° E 06:30:39 10° NE
CENTAUR R/B 4.1 06:21:19 10° W 06:27:38 30° SSW 06:33:10 10° SE
STARLINK-1062 4.0 06:23:55 10° W 06:28:06 58° S 06:31:25 16° ESE
STARLINK-1028 3.8 06:25:20 10° WSW 06:29:33 74° NNW 06:33:03 15° ENE
Cosmos 1908 3.2 06:26:03 10° S 06:29:58 65° ESE 06:33:48 10° NNE
SL-14 R/B 4.5 06:28:06 10° NE 06:31:04 21° E 06:34:02 10° SE
STARLINK-1034 3.9 06:27:35 10° WSW 06:31:48 62° S 06:34:43 19° E
STARLINK-1053 4.0 06:28:56 10° W 06:33:07 58° S 06:36:13 17° ESE
DNEPR-1 R/B 4.3 06:27:48 10° SW 06:33:09 67° SE 06:39:36 11° NE
Cosmos 2058 Rocket 3.3 06:29:24 10° S 06:33:48 49° ESE 06:38:11 10° NNE
STARLINK-1021 3.9 06:30:21 10° WSW 06:34:34 70° NNW 06:37:53 16° NE
Lacrosse 5 2.3 06:30:36 10° NNW 06:35:29 45° NE 06:39:22 16° ESE
MOS 1 Rocket 3.7 06:31:24 10° NE 06:36:15 45° ESE 06:40:52 10° S
STARLINK-1068 3.8 06:32:32 10° WSW 06:36:45 64° SSE 06:39:27 21° E
Cosmos 1953 3.8 06:32:54 10° SSW 06:36:46 41° W 06:40:34 10° NNW
Cosmos 1626 3.3 06:34:48 10° NE 06:37:49 23° E 06:40:51 10° SE
STARLINK-1061 4.1 06:33:55 10° W 06:38:05 57° S 06:40:58 19° ESE
CZ-4B R/B 4.1 06:33:39 10° S 06:39:02 52° WSW 06:44:15 10° NW
STARLINK-1019 3.9 06:35:19 10° WSW 06:39:31 66° NNW 06:42:38 17° NE
STARLINK-1023 4.0 06:35:18 10° WSW 06:39:33 63° NNW 06:42:48 16° NE
Meteor 1-24 Rocket 4.1 06:34:34 10° NNE 06:39:38 40° E 06:44:54 10° SSE
Cosmos 371 Rocket 3.8 06:35:18 10° N 06:39:48 37° ENE 06:44:22 10° SE
Helios 1A Rocket 3.5 06:37:41 10° S 06:41:54 62° WSW 06:46:03 10° NNW
STARLINK-1067 4.1 06:38:56 10° W 06:43:06 57° S 06:45:47 21° ESE
Cosmos 1726 Rocket 3.5 06:39:00 10° S 06:43:27 88° E 06:47:50 10° N
STARLINK-1012 4.0 06:40:19 10° WSW 06:44:31 62° NNW 06:47:26 19° NE
Cosmos 1674 2.6 06:41:12 10° N 06:44:59 76° E 06:48:52 10° SSE
YAOGAN 6 2.6 06:41:50 10° S 06:45:27 81° WSW 06:49:01 10° NNW
CZ-2C R/B 3.7 06:41:21 10° NNE 06:45:52 88° WNW 06:50:24 10° SSW
STARLINK-81 4.0 06:42:04 10° WSW 06:46:08 60° NNW 06:48:54 19° NE
STARLINK-1060 3.8 06:42:30 10° WSW 06:46:44 67° SSE 06:49:01 26° E
Cosmos 1452 Rocket 3.5 06:42:10 10° N 06:47:23 60° ENE 06:52:40 10° SSE
STARLINK-54 4.1 06:43:57 10° WSW 06:47:58 55° NNW 06:50:44 19° NE
STARLINK-1058 4.1 06:43:55 10° W 06:48:05 56° S 06:50:33 23° ESE
Cosmos 2263 Rocket 4.4 06:44:30 10° W 06:48:46 22° SW 06:53:04 10° S
STARLINK-77 4.0 06:45:23 10° WSW 06:49:25 57° NNW 06:52:03 20° NE
Okean-O 2.6 06:45:27 10° SSE 06:49:57 61° ENE 06:54:24 10° N
Cosmos 1726 3.8 06:46:35 10° SSW 06:50:07 37° W 06:53:37 10° NNW
STARLINK-25 4.1 06:47:03 10° WSW 06:51:04 56° NNW 06:53:40 21° NE
STARLINK-1030 3.7 06:47:30 10° WSW 06:51:44 70° SSE 06:53:49 29° E
STARLINK-71 4.2 06:48:56 10° WSW 06:52:56 51° NNW 06:55:32 20° NE
STARLINK-1043 4.1 06:48:55 10° W 06:53:05 56° S 06:55:19 25° ESE
STARLINK-1065 4.1 06:49:41 10° W 06:53:52 56° S 06:56:04 26° ESE
STARLINK-79 4.1 06:50:22 10° WSW 06:54:23 53° NNW 06:56:50 21° NE
STARLINK-1026 4.2 06:50:16 10° WSW 06:54:24 55° NNW 06:56:58 21° NE
Envisat 3.4 06:50:36 10° S 06:55:45 69° WSW 07:00:51 10° NNW
STARLINK-78 4.2 06:52:02 10° WSW 06:56:02 52° NNW 06:58:27 22° NE
Cosmos 2082 Rocket 2.5 06:50:59 10° SSW 06:56:33 49° SE 06:59:42 24° ENE
STARLINK-1020 3.7 06:52:29 10° WSW 06:56:44 72° SSE 06:58:36 32° E
Lacrosse 4 Rocket 1.5 06:52:43 10° NW 06:56:53 73° SW 07:01:00 10° SSE
CZ-2C R/B 2.7 06:51:28 10° NNE 06:56:56 75° ESE 07:02:35 10° SSW
Cosmos 1386 Rocket 4.4 06:50:52 10° N 06:57:01 71° E 07:03:23 10° SSE
Cosmos 1709 Rocket 4.2 06:51:37 10° NNE 06:57:27 45° E 07:03:24 10° SSE
USA 267 3.8 06:52:48 18° ESE 06:57:37 50° S 07:03:57 10° WSW
STARLINK-57 4.3 06:53:49 10° WSW 06:57:48 49° NNW 07:00:11 22° NNE
USA 229 DEB 4.3 06:52:03 10° N 06:58:54 38° ENE 07:05:09 12° SE
USA 229 4.3 06:52:10 10° N 06:59:01 38° ENE 07:05:12 12° SE
Meteor 2-5 Rocket 3.7 06:53:31 10° N 06:59:08 74° E 07:04:57 10° SSE
STARLINK-1007 4.3 06:55:05 10° WSW 06:59:15 51° NNW 07:01:43 22° NE
STARLINK-49 4.2 06:55:22 10° WSW 06:59:21 50° NNW 07:01:38 23° NNE
STARLINK-1013 4.3 06:55:15 10° WSW 06:59:22 51° NNW 07:01:46 23° NE
NOAA 12 4.4 06:55:17 10° S 07:00:41 72° WSW 07:06:03 10° NNW
STARLINK-27 4.3 06:57:00 10° WSW 07:00:59 49° NNW 07:03:13 23° NNE
DMSP B5D2-2 4.1 06:55:48 10° NNE 07:01:07 89° WNW 07:06:33 10° SSW
STARLINK-1052 3.6 06:57:28 10° WSW 07:01:43 74° SSE 07:03:23 35° E
STARLINK-74 4.3 06:58:41 10° WSW 07:02:39 48° NNW 07:04:49 24° NNE
Cosmos 1271 Rocket 4.1 06:59:01 10° NW 07:02:46 42° WSW 07:06:37 10° S
STARLINK-1063 4.0 06:58:55 10° W 07:03:05 56° S 07:04:53 31° ESE
Cosmos 1741 Rocket 4.0 06:58:41 10° SSW 07:04:02 85° WNW 07:09:21 10° NNE
Cosmos 2228 4.0 06:59:56 10° SSW 07:04:07 49° W 07:08:15 10° NNW
STARLINK-39 4.4 07:00:20 10° WSW 07:04:17 46° NNW 07:06:24 24° NNE
STARLINK-1009 4.4 07:00:16 10° WSW 07:04:21 48° NNW 07:06:33 24° NNE
STARLINK-1150 3.6 07:01:57 10° NW 07:05:20 44° NNE 07:05:38 42° NE
STARLINK-1170 3.6 07:02:16 10° NW 07:05:48 46° NNE 07:06:15 43° ENE
STARLINK-1027 3.7 07:01:27 10° WSW 07:05:49 78° SSE 07:07:26 38° E
Cosmos 1812 Rocket 4.3 07:01:46 10° S 07:05:54 33° ESE 07:06:18 33° E
STARLINK-31 4.4 07:02:01 10° WSW 07:05:57 45° NW 07:08:01 24° NNE
CZ-2D R/B 3.5 07:02:16 10° SSE 07:06:07 46° E 07:09:53 10° N
SL-08 ROCKET BODY 4.3 07:01:11 10° N 07:07:04 82° E 07:13:03 10° S
STARLINK-1064 4.0 07:03:55 10° WSW 07:08:05 56° S 07:09:41 34° ESE
Cosmos 1833 Rocket 2.6 07:03:12 10° SSW 07:08:56 85° ESE 07:13:12 18° NNE
STARLINK-21 4.5 07:05:22 10° WSW 07:09:16 43° NW 07:11:14 25° NNE
STARLINK-1015 4.5 07:05:14 10° WSW 07:09:17 45° NW 07:11:19 25° NNE
Cosmos 44 Rocket 4.2 07:04:47 10° SSW 07:09:33 36° SE 07:11:02 30° ESE
Cosmos 332 Rocket 3.9 07:06:16 10° N 07:11:00 53° ENE 07:15:48 10° SSE
STARLINK-1033 3.6 07:07:26 10° WSW 07:11:42 80° SSE 07:12:57 44° E
STARLINK-1041 4.0 07:08:54 10° WSW 07:13:04 56° S 07:14:27 37° ESE
STARLINK-1031 3.6 07:09:12 10° WSW 07:13:34 85° SSE 07:14:52 45° ENE
Cosmos 1626 Rocket 3.9 07:14:29 41° E 07:14:29 41° E 07:18:35 10° SSE
H-2A R/B 4.0 07:10:28 10° SE 07:11:43 15° SE 07:11:43 15° SE
COSMOS 2406 3.8 07:09:41 10° SW 07:15:20 57° WNW 07:20:53 10° N
STARLINK-1038 4.0 07:13:54 10° WSW 07:18:04 57° S 07:19:14 41° ESE
Cosmos 1892 Rocket 3.9 07:15:22 10° NNW 07:19:48 67° WSW 07:24:15 10° S
STARLINK-1024 3.6 07:17:25 10° WSW 07:21:40 86° SSE 07:22:31 56° ENE
Exosat Rocket 3.8 07:16:33 10° SSW 07:21:47 68° ESE 07:24:59 30° NE
ATLAS 3B R/B 4.3 07:15:35 10° WSW 07:22:03 30° SSW 07:28:27 10° SE
Cosmos 1455 4.5 07:19:24 10° SSE 07:20:05 13° SSE 07:20:05 13° SSE
STARLINK-1046 4.0 07:18:53 10° WSW 07:23:04 57° S 07:24:01 45° SE
CSL-04 Rocket 3.7 07:19:48 10° SSE 07:25:18 56° E 07:30:38 10° N
STARLINK-1132 3.4 07:21:48 10° NW 07:25:13 58° N 07:25:13 58° N
Meteor 2-10 Rocket 4.3 07:21:06 10° S 07:25:30 32° ESE 07:25:30 32° ESE
STARLINK-1149 3.4 07:22:21 10° NW 07:25:53 61° NNE 07:25:53 61° NNE
STARLINK-1035 3.5 07:22:22 10° WSW 07:26:37 89° ESE 07:27:16 63° ENE
SAR-Lupe-2 3.5 07:27:24 63° NNE 07:27:56 90° ENE 07:31:39 10° SSW
STARLINK-1039 3.9 07:23:53 10° WSW 07:28:04 58° S 07:28:48 49° SE
STARLINK-1177 3.5 07:24:51 10° NW 07:28:12 59° N 07:28:12 59° N
STARLINK-1167 3.5 07:26:24 10° NW 07:29:32 56° NNW 07:29:32 56° NNW
STARLINK-1151 3.8 07:27:36 10° NW 07:30:14 45° NNW 07:30:14 45° NNW
STARLINK-1032 3.5 07:27:21 10° WSW 07:31:37 87° NNW 07:32:04 70° ENE
STARLINK-1133 3.9 07:28:54 10° NW 07:31:30 44° NNW 07:31:30 44° NNW
IRIDIUM 106 4.3 07:30:32 33° NNE 07:32:43 58° E 07:37:56 10° S
STARLINK-1045 3.9 07:28:52 10° WSW 07:33:04 59° S 07:33:34 54° SE
Meteor 2-1 Rocket 4.2 07:27:46 10° S 07:33:22 62° ESE 07:35:10 42° NE
Cosmos 2278 Rocket 2.1 07:27:57 10° NNW 07:33:39 79° ENE 07:39:25 10° SSE
STARLINK-1179 4.0 07:31:22 10° WNW 07:33:31 39° NW 07:33:31 39° NW
Lacrosse 5 rocket 2.3 07:30:49 10° WSW 07:34:46 40° NW 07:35:42 34° N
STARLINK-1139 3.9 07:31:18 10° NW 07:34:02 47° NNW 07:34:02 47° NNW
STARLINK-1176 4.1 07:31:49 10° WNW 07:33:57 38° NW 07:33:57 38° NW
STARLINK-1174 4.0 07:31:39 10° NW 07:34:10 43° NW 07:34:10 43° NW
NOSS 3-1 (C) 4.0 07:27:37 10° NNW 07:36:06 63° NE 07:42:43 14° SE
STARLINK-1011 3.5 07:32:22 10° WSW 07:36:37 83° NNW 07:36:52 77° NE
STARLINK-1173 4.3 07:34:23 10° WNW 07:36:23 35° NW 07:36:23 35° NW
STARLINK-1136 4.3 07:34:50 10° WNW 07:36:49 34° NW 07:36:49 34° NW
STARLINK-1050 3.8 07:33:53 10° WSW 07:38:05 59° S 07:38:22 58° SSE
STARLINK-1180 4.1 07:35:32 10° NW 07:38:00 41° NW 07:38:00 41° NW
STARLINK-1163 3.8 07:36:40 10° WNW 07:39:38 53° NW 07:39:38 53° NW
STARLINK-1153 4.1 07:36:52 10° WNW 07:39:27 43° NW 07:39:27 43° NW
Genesis I 3.6 07:36:36 10° SW 07:40:05 53° SSE 07:40:05 53° SSE
STARLINK-1036 3.6 07:37:19 10° WSW 07:41:34 79° NNW 07:41:38 79° N
Cosmos 2181 Rocket 4.0 07:36:25 10° S 07:43:00 84° E 07:47:14 24° NNE
STARLINK-1055 3.8 07:38:53 10° WSW 07:43:04 60° S 07:43:09 60° SSE
STARLINK-1044 3.7 07:42:19 10° WSW 07:46:26 74° NW 07:46:26 74° NW
STARLINK-1022 3.9 07:43:53 10° WSW 07:47:58 61° S 07:47:58 61° S
Cosmos 1300 3.6 07:44:47 10° SSW 07:48:34 49° W 07:49:43 36° NW
Mayak 1.3 07:51:34 11° SSE 07:51:34 11° SSE 07:51:50 10° SSE
Gbstr 26 Del rocket 4.3 07:42:44 10° W 07:49:29 78° S 07:52:28 41° ESE
Cosmos 304 Rocket 4.0 07:44:46 10° NNW 07:55:17 - SSE 07:48:30 53° N
STARLINK-1047 3.8 07:47:17 10° WSW 07:51:11 67° WNW 07:51:11 67° WNW
STARLINK-1037 3.9 07:48:05 10° WSW 07:51:57 66° WNW 07:51:57 66° WNW
STARLINK-1042 4.0 07:48:52 10° WSW 07:52:45 60° SSW 07:52:45 60° SSW
YAOGAN 1 3.1 07:50:15 10° S 07:54:37 60° WSW 07:58:55 10° NNW
STARLINK-1056 4.1 07:53:50 10° WSW 07:57:30 57° SSW 07:57:30 57° SSW
CZ-4 R/B 2.8 07:55:44 10° S 07:59:39 39° WSW 08:03:27 10° NW
Cosmos 1486 Rocket 4.2 07:55:03 10° SSW 07:59:46 55° SE 07:59:46 55° SE
STARLINK-1059 4.3 07:57:16 10° WSW 08:00:46 53° WNW 08:00:46 53° WNW
Cosmos 1939 Rocket 4.1 07:58:30 10° S 08:02:32 43° WSW 08:06:27 10° NW
STARLINK-1054 4.3 07:58:49 10° WSW 08:02:16 53° SW 08:02:16 53° SW
STARLINK-1057 4.5 08:02:16 10° WSW 08:05:34 47° W 08:05:34 47° W
BREEZE-M DEB (TANK) 3.3 08:04:06 10° WNW 08:07:38 73° NNE 08:08:09 68° ENE
STARLINK-1062 4.5 08:03:48 10° WSW 08:07:03 49° SW 08:07:03 49° SW
Nadezhda 3 Rocket 4.4 08:02:14 10° S 08:07:44 47° SE 08:07:44 47° SE
Cosmos 1626 3.9 08:09:31 10° NW 08:12:56 31° WSW 08:16:23 10° S
Cosmos 1331 Rocket 4.1 08:09:04 10° NNW 08:14:20 77° WSW 08:19:43 10° SSE
Cosmos 2184 Rocket 4.2 08:16:01 54° SE 08:16:01 54° SE 08:21:00 10° SSE
Cosmos 968 Rocket 4.2 08:09:46 10° SSW 08:13:36 44° SSE 08:13:36 44° SSE
Lacrosse 5 2.3 08:13:19 10° WNW 08:18:25 59° SSW 08:18:35 59° SSW
CENTAUR R/B 3.9 08:14:49 10° SW 08:20:14 25° S 08:21:48 23° SSE
Lacrosse 4 Rocket 4.1 08:33:46 10° WSW 08:36:17 15° SSW 08:38:02 12° S
USA 267 3.2 08:40:09 74° SSE 08:40:14 74° SSE 08:46:51 10° WSW
Cosmos 2082 Rocket 3.5 08:35:25 10° SW 08:40:28 33° WNW 08:41:35 31° NW
USA 229 DEB 4.0 08:42:03 10° NW 08:49:37 69° SW 08:52:39 38° SSE
USA 229 4.0 08:42:09 10° NW 08:49:43 69° SW 08:52:42 39° SSE
H-2A R/B 3.4 08:49:09 10° S 08:52:19 35° S 08:52:19 35° S
CZ-2C R/B 4.3 08:49:18 10° S 08:52:54 39° S 08:52:54 39° S
NOSS 3-1 (A) 4.0 08:50:43 10° NW 08:59:20 80° SW 09:00:34 66° SSE
Cosmos 2074 Rocket 4.4 09:00:10 61° WSW 09:00:10 61° WSW 09:06:06 10° S
ATLAS 3B R/B 4.1 09:08:32 10° SW 09:15:01 31° SSE 09:15:47 30° SSE
Cosmos 2278 Rocket 4.2 09:13:41 10° W 09:18:25 26° SW 09:23:09 10° SSE
Mayak 1.9 09:28:09 11° SSW 09:28:09 11° SSW 09:28:21 10° SSW
CENTAUR R/B 4.3 10:06:20 10° SW 10:08:57 24° SSW 10:08:57 24° SSW
